Weather in Bezmenovo

Russia / Novosibirsk Oblast     54°04′57″N   83°23′33″E
temp.,
°C
wind,
m/s
gust,
m/s
humid.,
%
clouds,
%
prec.,
mm/h
press.,
hPa
HPBL,
m
23 may, mon
mon2301:00+16w1016839 2.5 1007645
04:00+11wnw7157062 0.0 1014730
07:00+10wsw3875100 0.0 1019404
10:00+14sw4547100 0.0 1021981
13:00+18sw45310 0.0 10221726
16:00+20sw34270 0.0 10212159
19:00+20ssw12300 0.0 10211567
22:00+13se22480 0.0 102211
24 may, tue
tue2401:00+10sse33730 0.0 102347
04:00+8e22770 0.0 102317
07:00+10ene24720 0.0 1022110
10:00+17ene464480 0.0 1020654
13:00+21ne5634100 0.0 10181268
16:00+24ne563188 0.0 10171504
19:00+22ne4744100 0.0 1016367
22:00+16nne51157100 0.0 1016183
25 may, wed
wed2501:00+16nne51351100 0.0 1015291
04:00+14n51157100 0.0 1015197
07:00+14n5126295 0.0 1015261
10:00+19nne61351100 0.0 1015624
13:00+21nne61051100 0.0 1014783
16:00+23ne71045100 0.0 10141030
19:00+22nne6114898 0.0 1014658
22:00+17nne4106294 0.0 1015168
26 may, thu
thu2601:00+16nne4136163 0.0 1015247
04:00+15nne5146527 0.0 1015254
07:00+16ne615700 0.0 1016406
10:00+22ne710510 0.0 1015810
13:00+25ne78400 0.0 10141295
16:00+26ene67355 0.0 10131344
19:00+24ne57444 0.0 1013392
22:00+16ne410601 0.0 1013161
27 may, fri
fri2701:00+13ne4105984 0.0 1013160
04:00+12ne38620 0.0 1012109
07:00+13ne37650 0.0 1012161
10:00+20nne34440 0.0 1012496
13:00+25nne34320 0.0 1011971
16:00+26nne34310 0.0 10111235
19:00+25n354326 0.0 1011262
22:00+19ne4757100 0.0 1011110